Weather Roundup
Issued by NWS

Home | Current Version | Previous Version | Graphics & Text | Print | Product List | Glossary Off
Versions: 1 2 3 4 5 6 7 8 9 10 11 12 13 14 15 16 17 18 19 20 21 22 23 24 25 26 27 28 29 30 31 32 33 34 35 36 37 38 39 40 41 42 43 44 45 46 47 48 49 50

079
NZUS93 KARX 221659
HRRWXR

CURRENT HOURLY OBSERVATIONS ACROSS
MUCH OF THE UPPER MISSISSIPPI VALLEY
NATIONAL WEATHER SERVICE LA CROSSE WI
1200 PM CDT TUE MAY 22 2018


...SOUTHEAST MINNESOTA...


CITY           SKY/WX    TMP DP  RH WIND       PRES   REMARKS
ROCHESTER      CLOUDY    64  58  80 W6        30.11R
ROCHESTER/MAYO CLOUDY    64  56  77 W3        30.10S
WINONA         CLOUDY    61  55  82 CALM      30.07S
AUSTIN         PTSUNNY   66  57  72 CALM      30.09S
ALBERT LEA     FAIR      64  55  72 NE5       30.08F
DODGE CENTER   PTSUNNY   63  59  88 CALM      30.10S FOG
PRESTON        CLOUDY    60  55  86 N3        30.12R
OWATONNA       FAIR      66  59  77 CALM      30.08S
FARIBAULT      PTSUNNY   68  59  73 CALM      30.08F
$$

...ELSEWHERE IN MINNESOTA...


CITY           SKY/WX    TMP DP  RH WIND       PRES   REMARKS
MINNEAPOLIS    PTSUNNY   68  58  70 VRB3      30.08S
INTNL FALLS    FAIR      72  48  42 VRB5      30.02R
DULUTH         FAIR      71  53  52 VRB5      30.05R
RED WING       CLOUDY    63  54  72 SW3       30.09S
REDWOOD FALLS  MOSUNNY   67  62  84 SE7       30.04F
MANKATO        PTSUNNY   68  58  70 N8        30.06F
WORTHINGTON    MOSUNNY   71  62  73 E10       30.04S
FAIRMONT       SUNNY     70  60  70 SE7       30.05F
$$

...SOUTHWEST WISCONSIN...


CITY           SKY/WX    TMP DP  RH WIND       PRES   REMARKS
LA CROSSE      CLOUDY    64  56  75 NW7       30.09R
PRAIRIE DU CHI CLOUDY    65  56  72 W3        30.09R
BOSCOBEL       CLOUDY    66  58  75 CALM      30.09R
LONE ROCK      NOT AVBL
PLATTEVILLE    CLOUDY    64  62  93 NW5       30.09R
FORT MC COY    CLOUDY    57  54  89 CALM      30.10S
MAUSTON-NEW LI CLOUDY    60  55  85 CALM      30.08F HAZE
VIROQUA        CLOUDY    60  59  96 NW7       30.10R
WIS DELLS      CLOUDY    58  53  86 CALM      30.09R
$$

...ELSEWHERE IN WISCONSIN...


CITY           SKY/WX    TMP DP  RH WIND       PRES   REMARKS
MILWAUKEE      CLOUDY    58  54  86 E3        30.08R FOG
MADISON        CLOUDY    60  55  83 CALM      30.08R
GREEN BAY      CLOUDY    63  55  75 CALM      30.07S
EAU CLAIRE     NOT AVBL
BLACK RVR FLS  NOT AVBL
MEDFORD        NOT AVBL
WAUSAU         CLOUDY    67  55  65 S5        30.05R
WIS RAPIDS     CLOUDY    62  55  77 VRB6      30.10R
MARSHFIELD     CLOUDY    63  57  81 W7        30.07S
RICE LAKE      CLOUDY    61  55  78 CALM      30.11S
$$

...NORTHEAST IOWA...


CITY           SKY/WX    TMP DP  RH WIND       PRES   REMARKS
WATERLOO       FAIR      71  59  65 N3        30.08S
DUBUQUE        CLOUDY    65  58  78 NW6       30.10R
DECORAH        CLOUDY    63  59  88 VRB5      30.10R
MASON CITY     SUNNY     74  58  57 MISG      30.08F
CHARLES CITY   PTSUNNY   68  59  73 N3        30.09S
OELWEIN        PTSUNNY   66  59  77 NW6       30.11R
$$

...ELSEWHERE IN IOWA...


CITY           SKY/WX    TMP DP  RH WIND       PRES   REMARKS
DES MOINES     LGT RAIN  71  63  75 SW6       30.08S
IOWA CITY      FAIR      72  61  68 W6        30.10S
FORT DODGE     PTSUNNY   71  62  73 SE8       30.06F
MARSHALLTOWN   CLOUDY    72  63  73 CALM      30.08S
CEDAR RAPIDS   PTSUNNY   71  61  70 NW6       30.08S
$$

...NORTHERN ILLINOIS...


CITY           SKY/WX    TMP DP  RH WIND       PRES   REMARKS
CHICAGO-OHARE  CLOUDY    66  58  75 W3        30.06R
CHICAGO-MIDWAY CLOUDY    66  60  81 NW7       30.06S FOG
MOLINE         CLOUDY    70  61  73 NW8       30.09R
ROCKFORD       CLOUDY    65  58  78 NW9       30.09R
PEORIA         PTSUNNY   73  62  68 NW8       30.08S
$$

NOTE: "FAIR" INDICATES FEW OR NO CLOUDS BELOW 12,000 FEET WITH NO
SIGNIFICANT WEATHER AND/OR OBSTRUCTIONS TO VISIBILITY. WIND
SPEEDS ARE IN MILES-PER-HOUR.




USA.gov is the U.S. government's official web portal to all federal, state and local government web resources and services.